Location: Corralito
(10.2667°N, 66.9500°W)
Time: 18:26:04
(UTC+00:00)

GPS 2-12 Rocket1 - Pass Details

Date: 23 March 2023
Orbit: 580 x 643 km, 20.0° (Epoch: 09 June)

Event Time Altitude Azimuth Distance (km) Brightness Sun altitude
Rises 23:47:07 0° 293° (WNW) 2,812 7.8 -17.7°
Reaches altitude 10° 23:49:29 10° 297° (WNW) 1,902 6.6 -18.2°
Maximum altitude 23:53:51 57° 16° (NNE) 680 3.1 -19.3°
Enters shadow 23:54:51 45° 65° (ENE) 792 3.2 -19.6°
